Hg 306 Tobis — OUPS — position and weather

sailwx.info

Track history (hours):
 
Tides and Currents Weather Stations Pressure Air Temp Water Temp Dewpoint Dewpoint Depression Visibility Wind Speed Wind Dir Waves Ship Positions

Hg 306 Tobis

Last reported at 2014-Nov-27 19:18 UTC. Time now 2014-Nov-28 04:13 UTC.
Position N 58°50' E 005°00'.

Length 40 m; draft 6.5 m.

Type: Fishing. MMSI: 219013001.

Date/timePositionNaut miles runAvg speedWind from/ knotsBaromVisibWave heightAir tempDewpointWater temp
2014-Nov-27 19:18N 58°50' E 005°00'6 8.5
2014-Nov-27 18:33N 58°46' E 005°09'17 8.3
2014-Nov-27 16:27N 58°34' E 005°33'8 8.8
2014-Nov-27 15:33N 58°29' E 005°44'9 9.0
2014-Nov-27 14:33N 58°22' E 005°56'8 8.4
2014-Nov-27 13:33N 58°17' E 006°08'8 7.7
2014-Nov-27 12:32N 58°11' E 006°19'49 9.8
2014-Nov-27 07:31N 57°39' E 007°28'3610.4
2014-Nov-27 04:04N 57°16' E 008°19'12 2.2
2014-Nov-26 22:19N 57°07' E 008°36'92 8.5
2014-Nov-26 11:34N 58°07' E 006°26'1111.1
2014-Nov-26 10:34N 58°14' E 006°11'9 9.4
2014-Nov-26 09:33N 58°21' E 005°57'6 6.3
2014-Nov-26 08:33N 58°25' E 005°49'2310.2
2014-Nov-26 06:18N 58°44' E 005°24'810.5
2014-Nov-26 05:33N 58°51' E 005°18'10 9.9
2014-Nov-26 04:33N 58°59' E 005°06'  
2014-Nov-19 11:33N 58°23' E 005°26'1010.0
2014-Nov-19 10:33N 58°17' E 005°42'24 0.9
2014-Nov-18 08:15N 58°05' E 006°22'6 8.3
2014-Nov-18 07:34N 58°09' E 006°13'8 7.9
2014-Nov-18 06:33N 58°14' E 006°02'8 7.9
2014-Nov-18 05:33N 58°19' E 005°51'7 7.2
2014-Nov-18 04:33N 58°24' E 005°41'7 6.9
2014-Nov-18 03:32N 58°29' E 005°31'8 7.1
2014-Nov-18 02:27N 58°35' E 005°22'7 7.5
2014-Nov-18 01:33N 58°40' E 005°13'8 7.6
2014-Nov-18 00:33N 58°46' E 005°03'  
Track history (hours):
 
Tides and Currents Weather Stations Pressure Air Temp Water Temp Dewpoint Dewpoint Depression Visibility Wind Speed Wind Dir Waves Ship Positions

Hg 306 Tobis

Last reported at 2014-Nov-27 19:18 UTC. Time now 2014-Nov-28 04:13 UTC.
Position N 58°50' E 005°00'.

Length 40 m; draft 6.5 m.

Type: Fishing. MMSI: 219013001.

Date/timePositionNaut miles runAvg speedWind from/ knotsBaromVisibWave heightAir tempDewpointWater temp
2014-Nov-27 19:18N 58°50' E 005°00'6 8.5
2014-Nov-27 18:33N 58°46' E 005°09'17 8.3
2014-Nov-27 16:27N 58°34' E 005°33'8 8.8
2014-Nov-27 15:33N 58°29' E 005°44'9 9.0
2014-Nov-27 14:33N 58°22' E 005°56'8 8.4
2014-Nov-27 13:33N 58°17' E 006°08'8 7.7
2014-Nov-27 12:32N 58°11' E 006°19'49 9.8
2014-Nov-27 07:31N 57°39' E 007°28'3610.4
2014-Nov-27 04:04N 57°16' E 008°19'12 2.2
2014-Nov-26 22:19N 57°07' E 008°36'92 8.5
2014-Nov-26 11:34N 58°07' E 006°26'1111.1
2014-Nov-26 10:34N 58°14' E 006°11'9 9.4
2014-Nov-26 09:33N 58°21' E 005°57'6 6.3
2014-Nov-26 08:33N 58°25' E 005°49'2310.2
2014-Nov-26 06:18N 58°44' E 005°24'810.5
2014-Nov-26 05:33N 58°51' E 005°18'10 9.9
2014-Nov-26 04:33N 58°59' E 005°06'  
2014-Nov-19 11:33N 58°23' E 005°26'1010.0
2014-Nov-19 10:33N 58°17' E 005°42'24 0.9
2014-Nov-18 08:15N 58°05' E 006°22'6 8.3
2014-Nov-18 07:34N 58°09' E 006°13'8 7.9
2014-Nov-18 06:33N 58°14' E 006°02'8 7.9
2014-Nov-18 05:33N 58°19' E 005°51'7 7.2
2014-Nov-18 04:33N 58°24' E 005°41'7 6.9
2014-Nov-18 03:32N 58°29' E 005°31'8 7.1
2014-Nov-18 02:27N 58°35' E 005°22'7 7.5
2014-Nov-18 01:33N 58°40' E 005°13'8 7.6
2014-Nov-18 00:33N 58°46' E 005°03'  

Dump ship's entire track history